Time,TemperatureF,DewpointF,PressureIn,WindDirection,WindDirectionDegrees,WindSpeedMPH,WindSpeedGustMPH,Humidity,HourlyPrecipIn,Conditions,Clouds,dailyrainin,SoftwareType,DateUTC
2013-05-23 00:01:00,50.5,48.9,29.86,ESE,119,7.0,12.0,94,0.00,,,0.00,meteohub,2013-05-23 04:01:00,
2013-05-23 00:02:00,50.5,48.9,29.86,SE,132,5.0,12.0,94,0.00,,,0.00,meteohub,2013-05-23 04:02:00,
2013-05-23 00:03:00,50.5,48.9,29.86,SSW,201,4.0,12.0,94,0.00,,,0.00,meteohub,2013-05-23 04:03:00,
2013-05-23 00:04:00,50.5,48.9,29.86,SW,215,2.0,12.0,94,0.00,,,0.00,meteohub,2013-05-23 04:04:00,
2013-05-23 00:09:00,50.5,48.9,29.86,SE,138,7.0,12.0,94,0.00,,,0.00,meteohub,2013-05-23 04:09:00,
2013-05-23 00:14:00,50.5,48.6,29.86,SE,138,7.0,12.0,93,0.00,,,0.00,meteohub,2013-05-23 04:14:00,
2013-05-23 00:19:00,50.5,48.6,29.86,SE,133,1.0,12.0,93,0.00,,,0.00,meteohub,2013-05-23 04:19:00,
2013-05-23 00:25:00,50.5,48.6,29.86,SSE,148,4.0,12.0,93,0.00,,,0.00,meteohub,2013-05-23 04:25:00,
2013-05-23 00:30:00,50.5,48.6,29.86,SE,133,3.0,9.0,93,0.00,,,0.00,meteohub,2013-05-23 04:30:00,
2013-05-23 00:35:00,50.4,48.7,29.86,ESE,119,3.0,9.0,94,0.00,,,0.00,meteohub,2013-05-23 04:35:00,
2013-05-23 00:40:00,50.4,48.4,29.85,ESE,113,7.0,9.0,93,0.00,,,0.00,meteohub,2013-05-23 04:40:00,
2013-05-23 00:45:00,50.4,48.4,29.85,SSE,157,2.0,11.0,93,0.00,,,0.00,meteohub,2013-05-23 04:45:00,
2013-05-23 00:50:00,50.4,48.4,29.85,SE,128,3.0,11.0,93,0.00,,,0.00,meteohub,2013-05-23 04:50:00,
2013-05-23 00:55:00,50.2,48.2,29.85,SSE,156,4.0,9.0,93,0.00,,,0.00,meteohub,2013-05-23 04:55:00,
2013-05-23 01:00:00,50.2,48.6,29.85,SE,140,4.0,8.0,94,0.00,,,0.00,meteohub,2013-05-23 05:00:00,
2013-05-23 01:06:00,50.2,48.6,29.85,South,188,2.0,9.0,94,0.00,,,0.00,meteohub,2013-05-23 05:06:00,
2013-05-23 01:11:00,50.0,48.4,29.85,SE,137,5.0,12.0,94,0.00,,,0.00,meteohub,2013-05-23 05:11:00,
2013-05-23 01:16:00,49.8,48.4,29.85,SE,133,2.0,12.0,95,0.00,,,0.00,meteohub,2013-05-23 05:16:00,
2013-05-23 01:21:00,49.6,48.2,29.85,ESE,121,3.0,12.0,95,0.00,,,0.00,meteohub,2013-05-23 05:21:00,
2013-05-23 01:26:00,49.6,48.2,29.85,ESE,120,3.0,10.0,95,0.00,,,0.00,meteohub,2013-05-23 05:26:00,
2013-05-23 01:31:00,49.6,48.2,29.85,SSE,151,6.0,10.0,95,0.00,,,0.00,meteohub,2013-05-23 05:31:00,
2013-05-23 01:36:00,49.5,48.0,29.85,SSE,157,2.0,10.0,95,0.01,,,0.01,meteohub,2013-05-23 05:36:00,
2013-05-23 01:42:00,49.5,48.0,29.85,ESE,111,4.0,10.0,95,0.01,,,0.01,meteohub,2013-05-23 05:42:00,
2013-05-23 01:47:00,49.5,48.0,29.85,SSE,150,3.0,10.0,95,0.01,,,0.01,meteohub,2013-05-23 05:47:00,
2013-05-23 01:52:00,49.5,48.0,29.84,South,182,0.0,17.0,95,0.02,,,0.02,meteohub,2013-05-23 05:52:00,
2013-05-23 01:57:00,49.3,47.8,29.85,ESE,122,0.0,17.0,95,0.02,,,0.02,meteohub,2013-05-23 05:57:00,
2013-05-23 02:02:00,49.3,48.2,29.84,SE,132,4.0,17.0,96,0.02,,,0.02,meteohub,2013-05-23 06:02:00,
2013-05-23 02:07:00,49.1,48.0,29.84,ESE,122,7.0,14.0,96,0.02,,,0.02,meteohub,2013-05-23 06:07:00,
2013-05-23 02:12:00,48.9,47.8,29.84,SE,124,3.0,14.0,96,0.02,,,0.02,meteohub,2013-05-23 06:12:00,
2013-05-23 02:17:00,48.9,47.8,29.84,SSE,150,2.0,14.0,96,0.02,,,0.02,meteohub,2013-05-23 06:17:00,
2013-05-23 02:22:00,48.9,47.8,29.83,SSE,161,8.0,11.0,96,0.02,,,0.02,meteohub,2013-05-23 06:22:00,
2013-05-23 02:27:00,48.7,47.7,29.83,SE,134,1.0,12.0,96,0.02,,,0.02,meteohub,2013-05-23 06:27:00,
2013-05-23 02:32:00,48.7,47.7,29.83,SE,128,5.0,12.0,96,0.02,,,0.02,meteohub,2013-05-23 06:32:00,
2013-05-23 02:37:00,48.7,47.3,29.83,SSE,148,6.0,12.0,95,0.01,,,0.02,meteohub,2013-05-23 06:37:00,
2013-05-23 02:42:00,48.7,47.3,29.83,SE,127,3.0,16.0,95,0.01,,,0.02,meteohub,2013-05-23 06:42:00,
2013-05-23 02:47:00,48.7,47.3,29.83,SSW,213,3.0,16.0,95,0.01,,,0.02,meteohub,2013-05-23 06:47:00,
2013-05-23 02:52:00,48.7,47.3,29.83,SE,138,3.0,16.0,95,0.00,,,0.02,meteohub,2013-05-23 06:52:00,
2013-05-23 02:57:00,48.7,47.3,29.81,SSE,165,6.0,16.0,95,0.00,,,0.02,meteohub,2013-05-23 06:57:00,
2013-05-23 03:02:00,48.7,47.3,29.81,SSE,154,3.0,16.0,95,0.00,,,0.02,meteohub,2013-05-23 07:02:00,
2013-05-23 03:08:00,48.7,47.3,29.81,SE,137,6.0,11.0,95,0.00,,,0.02,meteohub,2013-05-23 07:08:00,
2013-05-23 03:13:00,48.7,47.3,29.81,SE,126,3.0,12.0,95,0.00,,,0.02,meteohub,2013-05-23 07:13:00,
2013-05-23 03:18:00,48.7,47.3,29.81,SE,141,6.0,12.0,95,0.00,,,0.02,meteohub,2013-05-23 07:18:00,
2013-05-23 03:23:00,48.7,47.3,29.81,SE,137,3.0,12.0,95,0.00,,,0.02,meteohub,2013-05-23 07:23:00,
2013-05-23 03:28:00,48.7,47.3,29.80,SE,143,2.0,12.0,95,0.00,,,0.02,meteohub,2013-05-23 07:28:00,
2013-05-23 03:33:00,48.7,47.3,29.80,SE,133,7.0,13.0,95,0.00,,,0.02,meteohub,2013-05-23 07:33:00,
2013-05-23 03:38:00,48.6,47.5,29.80,South,181,4.0,13.0,96,0.00,,,0.02,meteohub,2013-05-23 07:38:00,
2013-05-23 03:44:00,48.6,47.5,29.80,SSE,159,5.0,13.0,96,0.00,,,0.02,meteohub,2013-05-23 07:44:00,
2013-05-23 03:49:00,48.6,47.5,29.80,SE,133,4.0,13.0,96,0.00,,,0.02,meteohub,2013-05-23 07:49:00,
2013-05-23 03:54:00,48.6,47.5,29.80,South,182,1.0,13.0,96,0.00,,,0.02,meteohub,2013-05-23 07:54:00,
2013-05-23 03:59:00,48.6,47.5,29.79,SE,136,3.0,13.0,96,0.00,,,0.02,meteohub,2013-05-23 07:59:00,
2013-05-23 04:04:00,48.6,47.5,29.79,SE,134,4.0,11.0,96,0.00,,,0.02,meteohub,2013-05-23 08:04:00,
2013-05-23 04:10:00,48.4,47.3,29.80,ESE,113,3.0,10.0,96,0.00,,,0.02,meteohub,2013-05-23 08:10:00,
2013-05-23 04:15:00,48.6,47.5,29.81,South,182,1.0,10.0,96,0.00,,,0.02,meteohub,2013-05-23 08:15:00,
2013-05-23 04:20:00,48.6,47.5,29.81,SW,236,6.0,11.0,96,0.00,,,0.02,meteohub,2013-05-23 08:20:00,
2013-05-23 04:25:00,48.6,47.5,29.83,ESE,107,3.0,11.0,96,0.00,,,0.02,meteohub,2013-05-23 08:25:00,
2013-05-23 04:30:00,48.6,47.5,29.82,ESE,117,1.0,9.0,96,0.05,,,0.07,meteohub,2013-05-23 08:30:00,
2013-05-23 04:35:00,48.6,47.5,29.81,East,96,2.0,8.0,96,0.06,,,0.08,meteohub,2013-05-23 08:35:00,
2013-05-23 04:40:00,48.4,47.3,29.81,SE,130,3.0,8.0,96,0.06,,,0.08,meteohub,2013-05-23 08:40:00,
2013-05-23 04:45:00,48.4,47.5,29.80,ESE,113,2.0,8.0,97,0.08,,,0.10,meteohub,2013-05-23 08:45:00,
2013-05-23 04:51:00,48.4,47.5,29.79,ESE,121,1.0,8.0,97,0.08,,,0.10,meteohub,2013-05-23 08:51:00,
2013-05-23 04:56:00,48.4,47.5,29.80,ESE,109,0.0,7.0,97,0.09,,,0.11,meteohub,2013-05-23 08:56:00,
2013-05-23 05:01:00,48.4,47.5,29.80,South,178,1.0,7.0,97,0.09,,,0.11,meteohub,2013-05-23 09:01:00,
2013-05-23 05:06:00,48.2,47.3,29.79,SE,138,1.0,5.0,97,0.10,,,0.12,meteohub,2013-05-23 09:06:00,
2013-05-23 05:11:00,48.4,47.5,29.79,ESE,111,9.0,9.0,97,0.10,,,0.12,meteohub,2013-05-23 09:11:00,
2013-05-23 05:16:00,48.4,47.5,29.78,SE,146,4.0,11.0,97,0.10,,,0.12,meteohub,2013-05-23 09:16:00,
2013-05-23 05:21:00,48.4,47.5,29.78,SE,136,5.0,11.0,97,0.10,,,0.12,meteohub,2013-05-23 09:21:00,
2013-05-23 05:26:00,48.4,47.5,29.77,ESE,118,8.0,11.0,97,0.08,,,0.12,meteohub,2013-05-23 09:26:00,
2013-05-23 05:32:00,48.4,47.5,29.78,SE,144,4.0,11.0,97,0.04,,,0.12,meteohub,2013-05-23 09:32:00,
2013-05-23 05:37:00,48.4,47.5,29.77,SSE,155,3.0,11.0,97,0.04,,,0.12,meteohub,2013-05-23 09:37:00,
2013-05-23 05:42:00,48.4,47.5,29.77,SE,129,3.0,9.0,97,0.03,,,0.12,meteohub,2013-05-23 09:42:00,
2013-05-23 05:47:00,48.4,47.5,29.78,SE,128,4.0,11.0,97,0.02,,,0.12,meteohub,2013-05-23 09:47:00,
2013-05-23 05:52:00,48.6,47.7,29.78,SSW,196,2.0,11.0,97,0.01,,,0.12,meteohub,2013-05-23 09:52:00,
2013-05-23 05:57:00,48.6,47.7,29.78,SE,142,1.0,9.0,97,0.01,,,0.12,meteohub,2013-05-23 09:57:00,
2013-05-23 06:02:00,48.6,47.5,29.78,SE,136,1.0,7.0,96,0.01,,,0.12,meteohub,2013-05-23 10:02:00,
2013-05-23 06:07:00,48.6,47.5,29.77,ESE,121,2.0,8.0,96,0.00,,,0.12,meteohub,2013-05-23 10:07:00,
2013-05-23 06:12:00,48.6,47.5,29.77,ESE,116,2.0,8.0,96,0.00,,,0.12,meteohub,2013-05-23 10:12:00,
2013-05-23 06:17:00,48.6,47.5,29.78,SE,134,0.0,8.0,96,0.00,,,0.12,meteohub,2013-05-23 10:17:00,
2013-05-23 06:22:00,48.7,47.7,29.77,SSW,204,0.0,8.0,96,0.00,,,0.12,meteohub,2013-05-23 10:22:00,
2013-05-23 06:27:00,48.7,47.7,29.78,ESE,119,2.0,10.0,96,0.00,,,0.12,meteohub,2013-05-23 10:27:00,
2013-05-23 06:32:00,48.7,47.7,29.77,SE,133,3.0,10.0,96,0.00,,,0.12,meteohub,2013-05-23 10:32:00,
2013-05-23 06:37:00,48.7,47.7,29.77,SE,124,2.0,8.0,96,0.00,,,0.12,meteohub,2013-05-23 10:37:00,
2013-05-23 06:42:00,48.9,47.8,29.77,ESE,113,1.0,8.0,96,0.00,,,0.12,meteohub,2013-05-23 10:42:00,
2013-05-23 06:47:00,48.9,47.8,29.78,SW,219,4.0,11.0,96,0.00,,,0.12,meteohub,2013-05-23 10:47:00,
2013-05-23 06:52:00,48.9,47.8,29.77,SE,125,4.0,11.0,96,0.00,,,0.12,meteohub,2013-05-23 10:52:00,
2013-05-23 06:57:00,48.9,47.8,29.77,East,96,6.0,13.0,96,0.00,,,0.12,meteohub,2013-05-23 10:57:00,
2013-05-23 07:02:00,49.1,48.0,29.77,South,172,1.0,13.0,96,0.00,,,0.12,meteohub,2013-05-23 11:02:00,
2013-05-23 07:07:00,49.1,48.0,29.77,SE,125,0.0,10.0,96,0.00,,,0.12,meteohub,2013-05-23 11:07:00,
2013-05-23 07:12:00,49.1,48.0,29.76,SE,132,3.0,10.0,96,0.00,,,0.12,meteohub,2013-05-23 11:12:00,
2013-05-23 07:17:00,49.3,48.2,29.76,SE,134,5.0,10.0,96,0.00,,,0.12,meteohub,2013-05-23 11:17:00,
2013-05-23 07:22:00,49.3,48.2,29.76,South,171,2.0,10.0,96,0.00,,,0.12,meteohub,2013-05-23 11:22:00,
2013-05-23 07:27:00,49.3,48.2,29.77,SE,130,3.0,10.0,96,0.00,,,0.12,meteohub,2013-05-23 11:27:00,
2013-05-23 07:32:00,49.5,48.4,29.77,SW,219,2.0,9.0,96,0.00,,,0.12,meteohub,2013-05-23 11:32:00,
2013-05-23 07:37:00,49.5,48.4,29.76,SSE,151,4.0,11.0,96,0.00,,,0.12,meteohub,2013-05-23 11:37:00,
2013-05-23 07:43:00,49.5,48.4,29.76,SSW,199,9.0,11.0,96,0.00,,,0.12,meteohub,2013-05-23 11:43:00,
2013-05-23 07:48:00,49.5,48.4,29.75,South,173,2.0,10.0,96,0.00,,,0.12,meteohub,2013-05-23 11:48:00,
2013-05-23 07:53:00,49.6,48.6,29.75,ESE,115,7.0,10.0,96,0.00,,,0.12,meteohub,2013-05-23 11:53:00,
2013-05-23 07:58:00,49.8,48.7,29.75,SE,144,6.0,9.0,96,0.00,,,0.12,meteohub,2013-05-23 11:58:00,
2013-05-23 08:03:00,50.0,48.9,29.75,SSE,165,4.0,9.0,96,0.00,,,0.12,meteohub,2013-05-23 12:03:00,
2013-05-23 08:08:00,50.2,49.1,29.76,ESE,120,3.0,10.0,96,0.00,,,0.12,meteohub,2013-05-23 12:08:00,
2013-05-23 08:13:00,50.2,48.7,29.76,South,184,2.0,10.0,95,0.00,,,0.12,meteohub,2013-05-23 12:13:00,
2013-05-23 08:18:00,50.4,49.3,29.76,SSW,196,2.0,11.0,96,0.01,,,0.13,meteohub,2013-05-23 12:18:00,
2013-05-23 08:24:00,50.4,48.9,29.76,WSW,240,5.0,11.0,95,0.01,,,0.13,meteohub,2013-05-23 12:24:00,
2013-05-23 08:29:00,50.4,48.9,29.76,SE,133,5.0,9.0,95,0.01,,,0.13,meteohub,2013-05-23 12:29:00,
2013-05-23 08:34:00,50.4,48.9,29.77,SW,214,6.0,9.0,95,0.01,,,0.13,meteohub,2013-05-23 12:34:00,
2013-05-23 08:39:00,50.4,48.9,29.77,ESE,122,8.0,11.0,95,0.01,,,0.13,meteohub,2013-05-23 12:39:00,
2013-05-23 08:44:00,50.4,48.9,29.77,South,176,3.0,11.0,95,0.01,,,0.13,meteohub,2013-05-23 12:44:00,
2013-05-23 08:49:00,50.4,48.9,29.77,SE,130,4.0,11.0,95,0.01,,,0.13,meteohub,2013-05-23 12:49:00,
2013-05-23 08:54:00,50.4,48.9,29.77,SSE,156,2.0,11.0,95,0.01,,,0.13,meteohub,2013-05-23 12:54:00,
2013-05-23 08:59:00,50.4,48.9,29.77,SSE,148,3.0,11.0,95,0.01,,,0.13,meteohub,2013-05-23 12:59:00,
2013-05-23 09:05:00,50.4,48.9,29.77,ESE,113,5.0,10.0,95,0.01,,,0.13,meteohub,2013-05-23 13:05:00,
2013-05-23 09:10:00,50.4,49.3,29.76,South,183,5.0,10.0,96,0.01,,,0.13,meteohub,2013-05-23 13:10:00,
2013-05-23 09:15:00,50.4,49.3,29.76,SSW,192,6.0,10.0,96,0.00,,,0.13,meteohub,2013-05-23 13:15:00,
2013-05-23 09:20:00,50.5,49.5,29.76,SSE,150,0.0,15.0,96,0.00,,,0.13,meteohub,2013-05-23 13:20:00,
2013-05-23 09:25:00,50.5,49.5,29.76,SE,145,6.0,15.0,96,0.00,,,0.13,meteohub,2013-05-23 13:25:00,
2013-05-23 09:30:00,50.7,49.6,29.76,SE,133,2.0,9.0,96,0.00,,,0.13,meteohub,2013-05-23 13:30:00,
2013-05-23 09:35:00,50.7,49.6,29.76,SE,136,3.0,9.0,96,0.00,,,0.13,meteohub,2013-05-23 13:35:00,
2013-05-23 09:41:00,50.9,49.8,29.76,South,170,5.0,10.0,96,0.00,,,0.13,meteohub,2013-05-23 13:41:00,
2013-05-23 09:46:00,51.1,50.0,29.76,SE,137,4.0,10.0,96,0.00,,,0.13,meteohub,2013-05-23 13:46:00,
2013-05-23 09:51:00,51.1,49.6,29.76,South,175,6.0,10.0,95,0.00,,,0.13,meteohub,2013-05-23 13:51:00,
2013-05-23 09:56:00,51.3,49.8,29.76,SSW,195,1.0,10.0,95,0.00,,,0.13,meteohub,2013-05-23 13:56:00,
2013-05-23 10:01:00,51.4,50.0,29.76,SSE,150,1.0,10.0,95,0.00,,,0.13,meteohub,2013-05-23 14:01:00,
2013-05-23 10:06:00,51.6,50.2,29.76,SSE,165,2.0,9.0,95,0.00,,,0.13,meteohub,2013-05-23 14:06:00,
2013-05-23 10:11:00,51.8,50.4,29.77,SE,141,1.0,9.0,95,0.00,,,0.13,meteohub,2013-05-23 14:11:00,
2013-05-23 10:16:00,52.0,50.5,29.76,South,186,5.0,9.0,95,0.00,,,0.13,meteohub,2013-05-23 14:16:00,
2013-05-23 10:22:00,52.2,50.7,29.76,ESE,111,7.0,10.0,95,0.00,,,0.13,meteohub,2013-05-23 14:22:00,
2013-05-23 10:27:00,52.3,50.9,29.76,SE,128,4.0,10.0,95,0.00,,,0.13,meteohub,2013-05-23 14:27:00,
2013-05-23 10:32:00,52.5,50.9,29.77,SSW,211,5.0,10.0,94,0.00,,,0.13,meteohub,2013-05-23 14:32:00,
2013-05-23 10:37:00,52.7,51.1,29.76,ESE,119,2.0,10.0,94,0.00,,,0.13,meteohub,2013-05-23 14:37:00,
2013-05-23 10:42:00,52.9,51.3,29.76,SE,130,5.0,11.0,94,0.00,,,0.13,meteohub,2013-05-23 14:42:00,
2013-05-23 10:47:00,53.2,51.6,29.75,SW,224,4.0,11.0,94,0.00,,,0.13,meteohub,2013-05-23 14:47:00,
2013-05-23 10:52:00,53.4,51.8,29.76,SW,229,7.0,12.0,94,0.00,,,0.13,meteohub,2013-05-23 14:52:00,
2013-05-23 10:57:00,53.8,51.8,29.75,ESE,121,7.0,12.0,93,0.00,,,0.13,meteohub,2013-05-23 14:57:00,
2013-05-23 11:02:00,54.1,52.2,29.76,SW,224,7.0,12.0,93,0.00,,,0.13,meteohub,2013-05-23 15:02:00,
2013-05-23 11:07:00,54.3,52.3,29.75,SW,225,8.0,11.0,93,0.00,,,0.13,meteohub,2013-05-23 15:07:00,
2013-05-23 11:12:00,54.9,52.5,29.75,SE,142,2.0,13.0,92,0.00,,,0.13,meteohub,2013-05-23 15:12:00,
2013-05-23 11:17:00,55.0,52.7,29.75,South,178,0.0,13.0,92,0.00,,,0.13,meteohub,2013-05-23 15:17:00,
2013-05-23 11:22:00,55.4,53.1,29.75,South,179,6.0,13.0,92,0.00,,,0.13,meteohub,2013-05-23 15:22:00,
2013-05-23 11:27:00,55.8,53.2,29.75,WSW,247,7.0,13.0,91,0.00,,,0.13,meteohub,2013-05-23 15:27:00,
2013-05-23 11:32:00,55.9,53.4,29.75,South,188,9.0,12.0,91,0.00,,,0.13,meteohub,2013-05-23 15:32:00,
2013-05-23 11:37:00,56.5,53.6,29.75,SSW,200,4.0,12.0,90,0.00,,,0.13,meteohub,2013-05-23 15:37:00,
2013-05-23 11:42:00,56.8,54.0,29.75,South,185,7.0,12.0,90,0.00,,,0.13,meteohub,2013-05-23 15:42:00,
2013-05-23 11:47:00,56.8,54.0,29.75,SSE,157,6.0,13.0,90,0.00,,,0.13,meteohub,2013-05-23 15:47:00,
2013-05-23 11:52:00,56.8,54.0,29.75,SSW,202,12.0,17.0,90,0.00,,,0.13,meteohub,2013-05-23 15:52:00,
2013-05-23 11:57:00,57.0,54.1,29.74,SW,215,11.0,17.0,90,0.00,,,0.13,meteohub,2013-05-23 15:57:00,
2013-05-23 12:03:00,57.0,53.8,29.75,ESE,110,3.0,17.0,89,0.00,,,0.13,meteohub,2013-05-23 16:03:00,
2013-05-23 12:08:00,57.4,54.1,29.75,SSW,198,6.0,16.0,89,0.00,,,0.13,meteohub,2013-05-23 16:08:00,
2013-05-23 12:13:00,57.4,54.5,29.74,South,180,4.0,16.0,90,0.00,,,0.13,meteohub,2013-05-23 16:13:00,
2013-05-23 12:18:00,57.6,54.7,29.74,SSW,204,5.0,13.0,90,0.00,,,0.13,meteohub,2013-05-23 16:18:00,
2013-05-23 12:23:00,57.7,54.9,29.74,ESE,109,8.0,13.0,90,0.00,,,0.13,meteohub,2013-05-23 16:23:00,
2013-05-23 12:28:00,57.6,54.7,29.74,ESE,111,7.0,10.0,90,0.00,,,0.13,meteohub,2013-05-23 16:28:00,
2013-05-23 12:33:00,57.6,54.7,29.74,South,176,3.0,10.0,90,0.00,,,0.13,meteohub,2013-05-23 16:33:00,
2013-05-23 12:38:00,57.7,55.2,29.74,SSW,209,2.0,10.0,91,0.00,,,0.13,meteohub,2013-05-23 16:38:00,
2013-05-23 12:44:00,57.7,54.9,29.74,SE,140,3.0,10.0,90,0.00,,,0.13,meteohub,2013-05-23 16:44:00,
2013-05-23 12:49:00,57.7,55.2,29.73,SSW,196,4.0,9.0,91,0.00,,,0.13,meteohub,2013-05-23 16:49:00,
2013-05-23 12:54:00,57.9,55.0,29.74,SSW,192,2.0,9.0,90,0.00,,,0.13,meteohub,2013-05-23 16:54:00,
2013-05-23 12:59:00,58.1,55.2,29.73,South,170,5.0,9.0,90,0.00,,,0.13,meteohub,2013-05-23 16:59:00,
2013-05-23 13:04:00,58.3,55.4,29.73,SE,130,3.0,8.0,90,0.00,,,0.13,meteohub,2013-05-23 17:04:00,
2013-05-23 13:09:00,58.5,55.6,29.73,ESE,119,2.0,8.0,90,0.00,,,0.13,meteohub,2013-05-23 17:09:00,
2013-05-23 13:15:00,58.6,55.8,29.73,SE,128,3.0,8.0,90,0.00,,,0.13,meteohub,2013-05-23 17:15:00,
2013-05-23 13:20:00,58.8,55.9,29.73,South,181,0.0,8.0,90,0.00,,,0.13,meteohub,2013-05-23 17:20:00,
2013-05-23 13:25:00,59.0,56.1,29.73,SSE,166,2.0,8.0,90,0.00,,,0.13,meteohub,2013-05-23 17:25:00,
2013-05-23 13:30:00,59.2,56.3,29.72,South,171,0.0,8.0,90,0.00,,,0.13,meteohub,2013-05-23 17:30:00,
2013-05-23 13:35:00,59.2,56.3,29.72,ESE,117,4.0,6.0,90,0.00,,,0.13,meteohub,2013-05-23 17:35:00,
2013-05-23 13:40:00,58.8,55.9,29.73,SSE,155,3.0,10.0,90,0.00,,,0.13,meteohub,2013-05-23 17:40:00,
2013-05-23 13:45:00,58.5,55.6,29.73,SE,140,1.0,10.0,90,0.00,,,0.13,meteohub,2013-05-23 17:45:00,
2013-05-23 13:50:00,58.3,55.6,29.73,SE,133,3.0,10.0,91,0.00,,,0.13,meteohub,2013-05-23 17:50:00,
2013-05-23 13:56:00,57.9,55.6,29.72,SE,127,2.0,7.0,92,0.00,,,0.13,meteohub,2013-05-23 17:56:00,
2013-05-23 14:01:00,57.6,55.6,29.73,SE,128,0.0,7.0,93,0.02,,,0.15,meteohub,2013-05-23 18:01:00,
2013-05-23 14:06:00,57.0,55.2,29.73,SE,129,1.0,7.0,94,0.04,,,0.16,meteohub,2013-05-23 18:06:00,
2013-05-23 14:11:00,56.8,55.4,29.73,ESE,123,2.0,7.0,95,0.05,,,0.18,meteohub,2013-05-23 18:11:00,
2013-05-23 14:16:00,56.7,55.6,29.73,SE,138,3.0,9.0,96,0.07,,,0.20,meteohub,2013-05-23 18:16:00,
2013-05-23 14:21:00,56.5,55.4,29.73,ESE,115,8.0,9.0,96,0.08,,,0.21,meteohub,2013-05-23 18:21:00,
2013-05-23 14:26:00,56.3,55.2,29.73,SSE,148,1.0,9.0,96,0.10,,,0.23,meteohub,2013-05-23 18:26:00,
2013-05-23 14:31:00,56.1,55.2,29.73,SE,125,1.0,8.0,97,0.12,,,0.25,meteohub,2013-05-23 18:31:00,
2013-05-23 14:37:00,56.1,55.2,29.72,ESE,114,1.0,8.0,97,0.13,,,0.26,meteohub,2013-05-23 18:37:00,
2013-05-23 14:42:00,55.9,55.0,29.72,SSW,205,2.0,7.0,97,0.16,,,0.29,meteohub,2013-05-23 18:42:00,
2013-05-23 14:47:00,56.1,55.2,29.72,SE,124,2.0,8.0,97,0.18,,,0.31,meteohub,2013-05-23 18:47:00,
2013-05-23 14:52:00,56.1,55.2,29.72,SE,134,3.0,8.0,97,0.18,,,0.31,meteohub,2013-05-23 18:52:00,
2013-05-23 14:57:00,56.1,55.2,29.73,ESE,118,1.0,8.0,97,0.19,,,0.33,meteohub,2013-05-23 18:57:00,
2013-05-23 15:02:00,56.3,55.4,29.72,SE,144,3.0,7.0,97,0.18,,,0.33,meteohub,2013-05-23 19:02:00,
2013-05-23 15:07:00,56.5,55.6,29.71,ESE,119,1.0,7.0,97,0.16,,,0.33,meteohub,2013-05-23 19:07:00,
2013-05-23 15:12:00,56.7,56.1,29.71,SSE,167,1.0,8.0,98,0.14,,,0.33,meteohub,2013-05-23 19:12:00,
2013-05-23 15:18:00,56.8,56.3,29.71,SSE,153,0.0,8.0,98,0.12,,,0.33,meteohub,2013-05-23 19:18:00,
2013-05-23 15:23:00,56.8,56.3,29.71,SE,141,4.0,5.0,98,0.11,,,0.33,meteohub,2013-05-23 19:23:00,
2013-05-23 15:28:00,57.0,56.5,29.71,SE,131,2.0,7.0,98,0.09,,,0.33,meteohub,2013-05-23 19:28:00,
2013-05-23 15:33:00,57.2,56.7,29.71,SE,136,4.0,7.0,98,0.08,,,0.33,meteohub,2013-05-23 19:33:00,
2013-05-23 15:38:00,57.2,56.7,29.72,SE,145,2.0,7.0,98,0.07,,,0.34,meteohub,2013-05-23 19:38:00,
2013-05-23 15:43:00,57.4,56.8,29.71,SE,135,4.0,7.0,98,0.06,,,0.34,meteohub,2013-05-23 19:43:00,
2013-05-23 15:48:00,57.4,56.8,29.71,ESE,118,0.0,5.0,98,0.05,,,0.36,meteohub,2013-05-23 19:48:00,
2013-05-23 15:54:00,57.4,56.8,29.71,SSE,155,0.0,5.0,98,0.06,,,0.38,meteohub,2013-05-23 19:54:00,
2013-05-23 15:59:00,57.4,56.8,29.71,SE,138,2.0,5.0,98,0.05,,,0.38,meteohub,2013-05-23 19:59:00,
2013-05-23 16:04:00,57.6,57.0,29.71,SSE,164,2.0,6.0,98,0.06,,,0.39,meteohub,2013-05-23 20:04:00,
2013-05-23 16:09:00,57.6,57.0,29.71,SE,125,0.0,6.0,98,0.06,,,0.39,meteohub,2013-05-23 20:09:00,
2013-05-23 16:14:00,57.6,57.0,29.71,ESE,112,1.0,4.0,98,0.06,,,0.39,meteohub,2013-05-23 20:14:00,
2013-05-23 16:19:00,57.7,57.2,29.71,SE,130,0.0,5.0,98,0.06,,,0.39,meteohub,2013-05-23 20:19:00,
2013-05-23 16:24:00,57.7,57.2,29.71,SE,128,1.0,5.0,98,0.06,,,0.39,meteohub,2013-05-23 20:24:00,
2013-05-23 16:29:00,57.7,57.2,29.71,ESE,115,0.0,5.0,98,0.06,,,0.39,meteohub,2013-05-23 20:29:00,
2013-05-23 16:35:00,57.9,57.4,29.71,SE,133,1.0,5.0,98,0.05,,,0.39,meteohub,2013-05-23 20:35:00,
2013-05-23 16:40:00,57.9,57.4,29.70,SE,142,3.0,5.0,98,0.05,,,0.40,meteohub,2013-05-23 20:40:00,
2013-05-23 16:45:00,58.1,57.6,29.70,ESE,118,0.0,4.0,98,0.03,,,0.40,meteohub,2013-05-23 20:45:00,
2013-05-23 16:50:00,58.3,57.7,29.70,SSE,151,0.0,7.0,98,0.02,,,0.40,meteohub,2013-05-23 20:50:00,
2013-05-23 16:55:00,58.5,57.9,29.70,ESE,121,2.0,7.0,98,0.03,,,0.41,meteohub,2013-05-23 20:55:00,
2013-05-23 17:00:00,58.6,58.3,29.70,ESE,111,1.0,4.0,99,0.02,,,0.41,meteohub,2013-05-23 21:00:00,
2013-05-23 17:05:00,58.6,58.3,29.70,ESE,123,2.0,4.0,99,0.02,,,0.41,meteohub,2013-05-23 21:05:00,
2013-05-23 17:11:00,58.8,58.3,29.70,SE,146,0.0,5.0,98,0.02,,,0.41,meteohub,2013-05-23 21:11:00,
2013-05-23 17:16:00,58.8,58.3,29.71,SSE,164,1.0,5.0,98,0.02,,,0.41,meteohub,2013-05-23 21:16:00,
2013-05-23 17:21:00,59.2,58.6,29.71,SSE,164,0.0,4.0,98,0.02,,,0.41,meteohub,2013-05-23 21:21:00,
2013-05-23 17:26:00,59.2,58.8,29.71,SE,144,1.0,3.0,99,0.02,,,0.41,meteohub,2013-05-23 21:26:00,
2013-05-23 17:31:00,59.4,59.0,29.70,ESE,114,0.0,3.0,99,0.02,,,0.41,meteohub,2013-05-23 21:31:00,
2013-05-23 17:36:00,59.4,59.0,29.70,ESE,109,2.0,7.0,99,0.01,,,0.41,meteohub,2013-05-23 21:36:00,
2013-05-23 17:41:00,59.4,58.8,29.70,SE,126,0.0,7.0,98,0.01,,,0.41,meteohub,2013-05-23 21:41:00,
2013-05-23 17:46:00,59.4,58.8,29.70,SE,137,0.0,7.0,98,0.01,,,0.41,meteohub,2013-05-23 21:46:00,
2013-05-23 17:52:00,59.5,59.0,29.70,SSE,155,0.0,7.0,98,0.00,,,0.41,meteohub,2013-05-23 21:52:00,
2013-05-23 17:57:00,59.7,59.2,29.70,SSW,209,1.0,4.0,98,0.00,,,0.41,meteohub,2013-05-23 21:57:00,
2013-05-23 18:02:00,59.7,59.4,29.70,SSW,207,0.0,3.0,99,0.00,,,0.41,meteohub,2013-05-23 22:02:00,
2013-05-23 18:07:00,60.1,59.7,29.70,SE,134,1.0,3.0,99,0.00,,,0.41,meteohub,2013-05-23 22:07:00,
2013-05-23 18:12:00,60.1,59.7,29.70,SW,215,3.0,3.0,99,0.00,,,0.41,meteohub,2013-05-23 22:12:00,
2013-05-23 18:17:00,60.3,59.7,29.70,SSW,209,0.0,3.0,98,0.00,,,0.41,meteohub,2013-05-23 22:17:00,
2013-05-23 18:22:00,60.3,59.9,29.70,SSW,202,1.0,3.0,99,0.00,,,0.41,meteohub,2013-05-23 22:22:00,
2013-05-23 18:27:00,60.3,59.7,29.70,SSW,192,0.0,3.0,98,0.00,,,0.41,meteohub,2013-05-23 22:27:00,
2013-05-23 18:32:00,60.4,60.1,29.70,SSW,192,1.0,2.0,99,0.00,,,0.41,meteohub,2013-05-23 22:32:00,
2013-05-23 18:37:00,60.4,60.1,29.70,SE,138,1.0,4.0,99,0.00,,,0.41,meteohub,2013-05-23 22:37:00,
2013-05-23 18:42:00,60.4,59.9,29.70,SSE,152,0.0,4.0,98,0.00,,,0.41,meteohub,2013-05-23 22:42:00,
2013-05-23 18:47:00,60.4,59.9,29.70,SSE,151,0.0,4.0,98,0.00,,,0.41,meteohub,2013-05-23 22:47:00,
2013-05-23 18:52:00,60.6,60.1,29.70,SSE,151,0.0,4.0,98,0.00,,,0.41,meteohub,2013-05-23 22:52:00,
2013-05-23 18:57:00,60.6,60.1,29.70,SSE,151,0.0,2.0,98,0.00,,,0.41,meteohub,2013-05-23 22:57:00,
2013-05-23 19:02:00,60.6,60.1,29.70,SSE,151,0.0,1.0,98,0.00,,,0.41,meteohub,2013-05-23 23:02:00,
2013-05-23 19:07:00,60.6,60.1,29.70,SSE,151,0.0,2.0,98,0.00,,,0.41,meteohub,2013-05-23 23:07:00,
2013-05-23 19:12:00,60.6,60.1,29.70,SSE,154,0.0,2.0,98,0.00,,,0.41,meteohub,2013-05-23 23:12:00,
2013-05-23 19:17:00,60.6,60.1,29.70,SSW,196,0.0,2.0,98,0.00,,,0.41,meteohub,2013-05-23 23:17:00,
2013-05-23 19:22:00,60.6,60.1,29.70,SSW,209,0.0,2.0,98,0.00,,,0.41,meteohub,2013-05-23 23:22:00,
2013-05-23 19:27:00,60.4,59.9,29.70,SE,128,2.0,2.0,98,0.00,,,0.41,meteohub,2013-05-23 23:27:00,
2013-05-23 19:32:00,60.4,59.9,29.70,SE,138,2.0,3.0,98,0.00,,,0.41,meteohub,2013-05-23 23:32:00,
2013-05-23 19:37:00,60.4,59.9,29.70,East,100,2.0,3.0,98,0.00,,,0.41,meteohub,2013-05-23 23:37:00,
2013-05-23 19:42:00,60.4,60.1,29.70,SE,127,1.0,4.0,99,0.00,,,0.41,meteohub,2013-05-23 23:42:00,
2013-05-23 19:47:00,60.6,60.3,29.70,ESE,122,3.0,5.0,99,0.00,,,0.41,meteohub,2013-05-23 23:47:00,
2013-05-23 19:52:00,60.6,60.3,29.70,ESE,119,0.0,5.0,99,0.00,,,0.41,meteohub,2013-05-23 23:52:00,
2013-05-23 19:57:00,60.6,60.3,29.70,South,183,0.0,5.0,99,0.00,,,0.41,meteohub,2013-05-23 23:57:00,
2013-05-23 20:03:00,60.6,60.1,29.70,SE,141,2.0,4.0,98,0.00,,,0.41,meteohub,2013-05-24 00:03:00,
2013-05-23 20:08:00,60.6,60.1,29.70,SSE,163,1.0,4.0,98,0.00,,,0.00,meteohub,2013-05-24 00:08:00,
2013-05-23 20:13:00,60.6,60.1,29.70,SE,143,1.0,4.0,98,0.00,,,0.00,meteohub,2013-05-24 00:13:00,
2013-05-23 20:18:00,60.6,60.1,29.70,SE,143,1.0,5.0,98,0.00,,,0.00,meteohub,2013-05-24 00:18:00,
2013-05-23 20:23:00,60.8,60.3,29.70,SW,217,2.0,5.0,98,0.00,,,0.00,meteohub,2013-05-24 00:23:00,
2013-05-23 20:28:00,60.8,60.3,29.70,South,170,3.0,6.0,98,0.00,,,0.00,meteohub,2013-05-24 00:28:00,
2013-05-23 20:33:00,60.8,60.3,29.69,SSE,163,2.0,8.0,98,0.00,,,0.00,meteohub,2013-05-24 00:33:00,
2013-05-23 20:39:00,60.8,60.3,29.70,SE,144,1.0,8.0,98,0.00,,,0.00,meteohub,2013-05-24 00:39:00,
2013-05-23 20:44:00,60.8,60.3,29.70,South,175,5.0,8.0,98,0.00,,,0.00,meteohub,2013-05-24 00:44:00,
2013-05-23 20:49:00,60.8,59.9,29.70,ESE,117,3.0,8.0,97,0.00,,,0.00,meteohub,2013-05-24 00:49:00,
2013-05-23 20:54:00,60.6,59.7,29.70,South,185,3.0,8.0,97,0.00,,,0.00,meteohub,2013-05-24 00:54:00,
2013-05-23 20:59:00,60.6,59.7,29.71,ESE,111,3.0,7.0,97,0.00,,,0.00,meteohub,2013-05-24 00:59:00,
2013-05-23 21:04:00,60.4,59.5,29.71,South,188,3.0,7.0,97,0.01,,,0.00,meteohub,2013-05-24 01:04:00,
2013-05-23 21:09:00,60.4,59.5,29.71,SSE,163,0.0,6.0,97,0.01,,,0.01,meteohub,2013-05-24 01:09:00,
2013-05-23 21:15:00,60.4,59.5,29.70,SE,136,0.0,6.0,97,0.01,,,0.01,meteohub,2013-05-24 01:15:00,
2013-05-23 21:20:00,60.4,59.9,29.70,SE,131,0.0,9.0,98,0.02,,,0.02,meteohub,2013-05-24 01:20:00,
2013-05-23 21:25:00,60.3,59.7,29.70,SE,146,0.0,9.0,98,0.02,,,0.02,meteohub,2013-05-24 01:25:00,
2013-05-23 21:30:00,60.3,59.7,29.70,South,188,1.0,9.0,98,0.02,,,0.02,meteohub,2013-05-24 01:30:00,
2013-05-23 21:35:00,60.3,59.7,29.71,SSE,149,0.0,7.0,98,0.02,,,0.02,meteohub,2013-05-24 01:35:00,
2013-05-23 21:40:00,60.3,59.7,29.71,SSW,210,0.0,7.0,98,0.03,,,0.03,meteohub,2013-05-24 01:40:00,
2013-05-23 21:45:00,60.1,59.5,29.71,South,190,0.0,4.0,98,0.04,,,0.04,meteohub,2013-05-24 01:45:00,
2013-05-23 21:51:00,60.1,59.5,29.71,South,190,0.0,3.0,98,0.04,,,0.04,meteohub,2013-05-24 01:51:00,
2013-05-23 21:56:00,60.1,59.5,29.71,South,190,0.0,2.0,98,0.05,,,0.05,meteohub,2013-05-24 01:56:00,
2013-05-23 22:01:00,60.1,59.5,29.71,South,190,0.0,2.0,98,0.05,,,0.06,meteohub,2013-05-24 02:01:00,
2013-05-23 22:06:00,60.1,59.5,29.71,South,190,0.0,1.0,98,0.05,,,0.06,meteohub,2013-05-24 02:06:00,
2013-05-23 22:11:00,60.1,59.5,29.71,South,190,0.0,0.0,98,0.05,,,0.06,meteohub,2013-05-24 02:11:00,
2013-05-23 22:16:00,60.1,59.5,29.71,South,190,1.0,2.0,98,0.05,,,0.07,meteohub,2013-05-24 02:16:00,
2013-05-23 22:21:00,60.1,59.5,29.71,South,190,0.0,2.0,98,0.05,,,0.07,meteohub,2013-05-24 02:21:00,
2013-05-23 22:26:00,60.1,59.5,29.71,South,190,0.0,2.0,98,0.05,,,0.07,meteohub,2013-05-24 02:26:00,
2013-05-23 22:32:00,59.9,59.4,29.71,South,190,0.0,2.0,98,0.06,,,0.08,meteohub,2013-05-24 02:32:00,
2013-05-23 22:37:00,59.7,59.2,29.71,South,190,0.0,1.0,98,0.05,,,0.08,meteohub,2013-05-24 02:37:00,
2013-05-23 22:42:00,59.7,59.2,29.72,South,190,0.0,0.0,98,0.05,,,0.08,meteohub,2013-05-24 02:42:00,
2013-05-23 22:47:00,59.7,59.2,29.72,South,190,0.0,1.0,98,0.04,,,0.08,meteohub,2013-05-24 02:47:00,
2013-05-23 22:52:00,59.5,59.0,29.72,South,190,0.0,1.0,98,0.04,,,0.08,meteohub,2013-05-24 02:52:00,
2013-05-23 22:57:00,59.5,59.0,29.71,South,190,0.0,1.0,98,0.03,,,0.08,meteohub,2013-05-24 02:57:00,
2013-05-23 23:02:00,59.5,59.0,29.71,South,190,0.0,1.0,98,0.02,,,0.08,meteohub,2013-05-24 03:02:00,
2013-05-23 23:07:00,59.5,59.0,29.71,South,190,0.0,1.0,98,0.03,,,0.09,meteohub,2013-05-24 03:07:00,
2013-05-23 23:12:00,59.4,58.8,29.71,South,190,0.0,1.0,98,0.03,,,0.09,meteohub,2013-05-24 03:12:00,
2013-05-23 23:17:00,59.4,58.8,29.71,South,190,1.0,1.0,98,0.02,,,0.09,meteohub,2013-05-24 03:17:00,
2013-05-23 23:23:00,59.0,58.5,29.72,SW,223,0.0,1.0,98,0.02,,,0.09,meteohub,2013-05-24 03:23:00,
2013-05-23 23:28:00,58.8,58.3,29.71,SW,223,0.0,1.0,98,0.01,,,0.09,meteohub,2013-05-24 03:28:00,
2013-05-23 23:33:00,58.8,58.3,29.71,SW,223,0.0,2.0,98,0.01,,,0.09,meteohub,2013-05-24 03:33:00,
2013-05-23 23:38:00,58.6,58.1,29.71,SW,223,0.0,2.0,98,0.01,,,0.09,meteohub,2013-05-24 03:38:00,
2013-05-23 23:43:00,58.3,57.7,29.72,WNW,296,1.0,2.0,98,0.01,,,0.09,meteohub,2013-05-24 03:43:00,
2013-05-23 23:48:00,57.7,56.8,29.72,NNE,13,1.0,2.0,97,0.02,,,0.10,meteohub,2013-05-24 03:48:00,
2013-05-23 23:53:00,57.4,56.5,29.72,North,355,2.0,7.0,97,0.02,,,0.10,meteohub,2013-05-24 03:53:00,
2013-05-23 23:59:00,56.8,55.9,29.72,North,0,2.0,7.0,97,0.02,,,0.10,meteohub,2013-05-24 03:59:00,